Weather History for Anaktuvuk Pass, AK

Change the Weather History Date:

Monday, December 31, 2012

  Actual Average Record
Temperature  
Mean Temperature -8 °F -  
Max Temperature 1 °F -3 °F 17 °F (2004)
Min Temperature -18 °F -14 °F -31 °F (2010)
Degree Days  
Heating Degree Days 74    
Moisture  
Dew Point -21 °F    
Average Humidity 64    
Maximum Humidity 78    
Minimum Humidity 55    
Precipitation  
Precipitation 0.00 in - - ()
Sea Level Pressure  
Sea Level Pressure 29.59 in    
Wind  
Wind Speed 8 mph (NNE)    
Max Wind Speed 12 mph    
Max Gust Speed 16 mph    
Visibility 9 miles    
Events      
Averages and records for this station are not official NWS values.
T = Trace of Precipitation, MM = Missing Value Source: NWS Daily Summary

Daily Weather History Graph

Daily Weather History Graph

Search for Another Location

Airport:

Trip Planner

Search our weather history database for the weather conditions in past years. The results will help you decide how hot, cold, wet, or windy it might be!

Date:

Astronomy

Dec. 31, 2012 Rise Set
Actual Time 12:37 PM AKST 1:42 PM AKST
Civil Twilight 10:25 AM AKST 3:55 PM AKST
Nautical Twilight 8:57 AM AKST 5:23 PM AKST
Astronomical Twilight 7:46 AM AKST 6:34 PM AKST
Moon 8:30 PM AKST 11:29 AM AKST
Length of Visible Light 5h 29m
Length of Day
1h 04m
Waning Gibbous, 89% of the Moon is Illuminated
Dec 31
Waning Gibbous
Jan 4
Last Quarter
Jan 11
New
Jan 18
First Quarter
Jan 26
Full

Hourly Weather History & Observations

Time (AKST) Temp. Windchill Dew Point Humidity Pressure Visibility Wind Dir Wind Speed Gust Speed Precip Events Conditions
12:16 AM -18.4 °F -40.2 °F -27.4 °F 63% 29.42 in 7.0 mi NNE 11.5 mph - N/A   Mostly Cloudy
12:36 AM -18.4 °F -40.2 °F -27.4 °F 63% 29.42 in 6.0 mi NNE 11.5 mph 16.1 mph N/A   Mostly Cloudy
12:56 AM -18.4 °F -37.9 °F -27.4 °F 63% 29.43 in 8.0 mi NNE 9.2 mph - N/A   Mostly Cloudy
1:16 AM -18.4 °F -40.2 °F -27.4 °F 63% 29.43 in 5.0 mi NNE 11.5 mph - N/A   Overcast
1:36 AM -18.4 °F -40.2 °F -27.4 °F 63% 29.44 in 10.0 mi NNE 11.5 mph - N/A   Overcast
1:56 AM -18.4 °F -39.1 °F -27.4 °F 63% 29.45 in 10.0 mi NNE 10.4 mph - N/A   Overcast
2:16 AM -18.4 °F -39.1 °F -27.4 °F 63% 29.44 in 10.0 mi NNE 10.4 mph - N/A   Mostly Cloudy
2:36 AM -18.4 °F -37.9 °F -27.4 °F 63% 29.44 in 10.0 mi NNE 9.2 mph - N/A   Scattered Clouds
2:56 AM -16.6 °F -37.9 °F -27.4 °F 58% 29.44 in 10.0 mi NNE 11.5 mph - N/A   Mostly Cloudy
3:16 AM -16.6 °F -34.4 °F -27.4 °F 58% 29.44 in 10.0 mi NNE 8.1 mph - N/A   Mostly Cloudy
3:36 AM -16.6 °F -37.9 °F -27.4 °F 58% 29.45 in 10.0 mi NNE 11.5 mph - N/A   Mostly Cloudy
3:56 AM -16.6 °F -34.4 °F -27.4 °F 58% 29.46 in 10.0 mi NNE 8.1 mph - N/A   Scattered Clouds
4:16 AM -18.4 °F -36.6 °F -27.4 °F 63% 29.46 in 10.0 mi NNE 8.1 mph - N/A   Scattered Clouds
4:36 AM -18.4 °F -36.6 °F -27.4 °F 63% 29.46 in 10.0 mi NNE 8.1 mph - N/A   Mostly Cloudy
4:56 AM -18.4 °F -36.6 °F -27.4 °F 63% 29.46 in 10.0 mi NNE 8.1 mph - N/A   Partly Cloudy
5:16 AM -18.4 °F -35.1 °F -27.4 °F 63% 29.47 in 10.0 mi NNE 6.9 mph - N/A   Clear
5:36 AM -18.4 °F -35.1 °F -27.4 °F 63% 29.48 in 10.0 mi NNE 6.9 mph - N/A   Mostly Cloudy
5:56 AM -16.6 °F -36.8 °F -25.6 °F 64% 29.49 in 10.0 mi NNE 10.4 mph - N/A   Overcast
6:16 AM -16.6 °F -37.9 °F -25.6 °F 64% 29.50 in 10.0 mi NNE 11.5 mph - N/A   Overcast
6:36 AM -16.6 °F -36.8 °F -25.6 °F 64% 29.51 in 10.0 mi NNE 10.4 mph - N/A   Overcast
6:56 AM -16.6 °F -37.9 °F -25.6 °F 64% 29.52 in 10.0 mi NNE 11.5 mph - N/A   Overcast
7:16 AM -14.8 °F -34.6 °F -23.8 °F 64% 29.52 in 10.0 mi NNE 10.4 mph - N/A   Overcast
7:36 AM -14.8 °F -33.5 °F -23.8 °F 64% 29.53 in 10.0 mi NNE 9.2 mph - N/A   Overcast
7:56 AM -14.8 °F -34.6 °F -25.6 °F 58% 29.54 in 10.0 mi NNE 10.4 mph 16.1 mph N/A   Overcast
8:16 AM -14.8 °F -33.5 °F -23.8 °F 64% 29.54 in 10.0 mi NNE 9.2 mph - N/A   Overcast
8:36 AM -14.8 °F -34.6 °F -23.8 °F 64% 29.54 in 10.0 mi NNE 10.4 mph - N/A   Overcast
8:56 AM -14.8 °F -33.5 °F -23.8 °F 64% 29.54 in 10.0 mi NNE 9.2 mph - N/A   Overcast
9:16 AM -14.8 °F -34.6 °F -23.8 °F 64% 29.55 in 10.0 mi NNE 10.4 mph - N/A   Overcast
9:36 AM -14.8 °F -34.6 °F -23.8 °F 64% 29.55 in 10.0 mi NNE 10.4 mph - N/A   Overcast
9:56 AM -14.8 °F -32.2 °F -23.8 °F 64% 29.57 in 10.0 mi NNE 8.1 mph - N/A   Overcast
10:16 AM -14.8 °F -34.6 °F -23.8 °F 64% 29.57 in 10.0 mi NNE 10.4 mph - N/A   Overcast
10:36 AM -14.8 °F -35.6 °F -23.8 °F 64% 29.58 in 10.0 mi NNE 11.5 mph 16.1 mph N/A   Overcast
10:56 AM -14.8 °F -33.5 °F -23.8 °F 64% 29.59 in 10.0 mi NNE 9.2 mph - N/A   Overcast
11:16 AM -14.8 °F -33.5 °F -23.8 °F 64% 29.61 in 10.0 mi NNE 9.2 mph - N/A   Overcast
11:36 AM -14.8 °F -33.5 °F -23.8 °F 64% 29.62 in 10.0 mi NNE 9.2 mph - N/A   Overcast
11:56 AM -14.8 °F -32.2 °F -23.8 °F 64% 29.62 in 10.0 mi NNE 8.1 mph - N/A   Overcast
12:16 PM -14.8 °F -33.5 °F -23.8 °F 64% 29.63 in 10.0 mi NNE 9.2 mph - N/A   Overcast
12:36 PM -13.0 °F -28.6 °F -23.8 °F 59% 29.63 in 10.0 mi NE 6.9 mph - N/A   Overcast
12:56 PM -13.0 °F -27.0 °F -22.0 °F 64% 29.64 in 7.0 mi NE 5.8 mph - N/A   Overcast
1:16 PM -13.0 °F -25.1 °F -22.0 °F 64% 29.65 in 8.0 mi NE 4.6 mph - N/A   Overcast
1:36 PM - - - N/A% 29.64 in 8.0 mi North 4.6 mph - N/A   Overcast
1:56 PM -13.0 °F -22.7 °F -22.0 °F 64% 29.66 in 5.0 mi North 3.5 mph - N/A   Overcast
2:16 PM -11.2 °F - -20.2 °F 64% 29.66 in 5.0 mi Calm Calm - N/A   Mostly Cloudy
2:36 PM -11.2 °F - -20.2 °F 64% 29.65 in 1.8 mi Calm Calm - N/A   Overcast
2:56 PM -11.2 °F - -20.2 °F 64% 29.65 in 4.0 mi Calm Calm - N/A   Mostly Cloudy
3:16 PM -11.2 °F - -20.2 °F 64% 29.65 in 5.0 mi Calm Calm - N/A   Overcast
3:36 PM -9.4 °F -22.7 °F -18.4 °F 65% 29.64 in 10.0 mi SSW 5.8 mph - N/A   Overcast
4:16 PM -9.4 °F -24.3 °F -18.4 °F 65% 29.65 in 10.0 mi SSW 6.9 mph - N/A   Overcast
4:36 PM -9.4 °F - -16.6 °F 71% 29.66 in 10.0 mi Calm Calm - N/A   Mostly Cloudy
4:56 PM -7.6 °F -18.8 °F -16.6 °F 65% 29.67 in 10.0 mi SSW 4.6 mph - N/A   Mostly Cloudy
5:16 PM -7.6 °F -18.8 °F -16.6 °F 65% 29.67 in 10.0 mi South 4.6 mph - N/A   Overcast
5:36 PM -7.6 °F - -16.6 °F 65% 29.67 in 10.0 mi Calm Calm - N/A   Mostly Cloudy
5:56 PM -7.6 °F -20.6 °F -16.6 °F 65% 29.67 in 10.0 mi South 5.8 mph - N/A   Mostly Cloudy
6:16 PM -7.6 °F -18.8 °F -16.6 °F 65% 29.67 in 10.0 mi SSW 4.6 mph - N/A   Partly Cloudy
6:36 PM -7.6 °F -22.1 °F -16.6 °F 65% 29.66 in 10.0 mi South 6.9 mph - N/A   Partly Cloudy
6:56 PM -7.6 °F -23.4 °F -16.6 °F 65% 29.67 in 10.0 mi South 8.1 mph - N/A   Clear
7:16 PM -7.6 °F -18.8 °F -16.6 °F 65% 29.67 in 10.0 mi South 4.6 mph - N/A   Clear
7:36 PM -7.6 °F - -16.6 °F 65% 29.68 in 10.0 mi Calm Calm - N/A   Clear
7:56 PM -7.6 °F -20.6 °F -14.8 °F 71% 29.69 in 10.0 mi South 5.8 mph - N/A   Clear
8:16 PM -5.8 °F -18.4 °F -14.8 °F 65% 29.70 in 10.0 mi SW 5.8 mph - N/A   Mostly Cloudy
8:36 PM -5.8 °F -18.4 °F -14.8 °F 65% 29.71 in 10.0 mi SSW 5.8 mph - N/A   Partly Cloudy
8:56 PM -4.0 °F -17.8 °F -11.2 °F 71% 29.70 in 10.0 mi South 6.9 mph - N/A   Mostly Cloudy
9:16 PM -2.2 °F - -11.2 °F 66% 29.70 in 10.0 mi Calm Calm - N/A   Overcast
9:36 PM -2.2 °F -10.4 °F -9.4 °F 71% 29.70 in 10.0 mi South 3.5 mph - N/A   Overcast
9:56 PM -0.4 °F - -9.4 °F 66% 29.70 in 10.0 mi Calm Calm - N/A   Mostly Cloudy
10:16 PM -2.2 °F - -11.2 °F 66% 29.69 in 10.0 mi Calm Calm - N/A   Partly Cloudy
10:36 PM -2.2 °F - -9.4 °F 71% 29.69 in 10.0 mi Calm Calm - N/A   Clear
10:56 PM -2.2 °F - -14.8 °F 55% 29.70 in 10.0 mi Calm Calm - N/A   Clear
11:16 PM -2.2 °F - -7.6 °F 78% 29.70 in 10.0 mi Calm Calm - N/A   Clear
11:36 PM 1.4 °F - -5.8 °F 72% 29.70 in 10.0 mi Calm Calm - N/A   Clear
11:56 PM -0.4 °F - -11.2 °F 60% 29.71 in 10.0 mi Calm Calm - N/A   Clear